METAR AND TAF INFORMATION
METAR FOR KATL
KATL 211452Z VRB04KT 10SM FEW037 FEW250 29/18 A3027 RMK AO2 SLP237 T02890183 58001
KATL 211352Z 28003KT 10SM FEW250 27/18 A3027 RMK AO2 SLP241 T02670183
KATL 211252Z 22006KT 10SM FEW250 25/18 A3027 RMK AO2 SLP241 T02500183
KATL 211558Z 2116/2218 07008KT P6SM SCT050 SCT250
FM220300 11004KT P6SM SCT250
FM221500 08006KT P6SM SCT040 SCT250

 AIRPORT MAP

 RUNWAY INFORMATION
Runway 08L Runway length 9000 ft Runway width 150 ft
Runway elevation 1015 ft Runway displaced threshold 0 ft Runway heading 90
Runway 26R Runway length 9000 ft Runway width 150 ft
Runway elevation 990 ft Runway displaced threshold 0 ft Runway heading 270
Runway 08R Runway length 10000 ft Runway width 150 ft
Runway elevation 1024 ft Runway displaced threshold 0 ft Runway heading 90
Runway 26L Runway length 10000 ft Runway width 150 ft
Runway elevation 995 ft Runway displaced threshold 0 ft Runway heading 270
Runway 09L Runway length 11890 ft Runway width 150 ft
Runway elevation 1019 ft Runway displaced threshold 0 ft Runway heading 90
Runway 27R Runway length 11890 ft Runway width 150 ft
Runway elevation 978 ft Runway displaced threshold 0 ft Runway heading 270
Runway 09R Runway length 9001 ft Runway width 150 ft
Runway elevation 1026 ft Runway displaced threshold 0 ft Runway heading 90
Runway 27L Runway length 9001 ft Runway width 150 ft
Runway elevation 985 ft Runway displaced threshold 0 ft Runway heading 270
Runway 10 Runway length 9000 ft Runway width 150 ft
Runway elevation 1000 ft Runway displaced threshold 0 ft Runway heading 90
Runway 28 Runway length 9000 ft Runway width 150 ft
Runway elevation 998 ft Runway displaced threshold 0 ft Runway heading 270

 AIRPORT FREQUENCIES
Type APP Name ATLANTA AP Frequency 118.35 MHZ
Type ATIS Name ATIS Frequency 119.65 MHZ
Type CLD Name CLNC DEL Frequency 118.1 MHZ
Type DEP Name ATLANTA DE Frequency 125 MHZ
Type GND Name GND Frequency 121.65 MHZ
Type RDO Name MACON RDO Frequency 116.9 MHZ
Type SFA Name SFA Frequency 30.697 MHZ
Type TWR Name ATLANTA TW Frequency 119.1 MHZ
Type UNIC Name UNICOM Frequency 122.95 MHZ

 AIRPORT NEAR NAVIGATION AIDS
Type NDB Name Catta Frequency 375 KHZ
Type VORTAC Name Atlanta Frequency 116900 KHZ
Type NDB Name Redan Frequency 266 KHZ

-